Zurück zum Katalog

STARLINK-3548

AktivKommunikationVLEO
NORAD 51864·PAYLOAD·🇺🇸 United States

Gestartet Mar 3, 2022 von Cape Canaveral Space Force Station

Loading…

Nächste Überflüge (nächste 24 Stunden)

TLE

AktuellSource: CelesTrak SupGP

Epoche: Sep 15, 2026, 02:29 UTC

1 51864C 22022N   26258.10395833 -.00042490  00000+0 -12554-2 0  2584
2 51864  53.1594 228.5997 0001335  89.9053 180.3191 15.34411821    15

Verfolge STARLINK-3548 in Echtzeit mit AllMySat

Download on the App Store